When you browse on this site, cookies collect data to enhance your experience and personalize the content and advertising you see.
Visit our Privacy Policy to learn more. By continuing to use the site, you agree to this use of cookies and data.

Tiempo cada hora Sutton in Ashfield

Hoy, 4 Agosto, Martes

Tiempo Temperatura Precipitaciones Viento Presión Humedad
00:00 +11°C° 0 mm 1 mps 747 mmHg 77%
01:00 +11°C° 0 mm 1 mps 747 mmHg 78%
02:00 +11°C° 0 mm 1 mps 747 mmHg 78%
03:00 +11°C° 0 mm 1 mps 747 mmHg 79%
04:00 +10°C° 0 mm 2 mps 747 mmHg 79%
05:00 +10°C° 0 mm 2 mps 746 mmHg 78%
06:00 +12°C° 0 mm 2 mps 746 mmHg 77%
07:00 +11°C° 0.1 mm 3 mps 746 mmHg 77%
08:00 +11°C° 0.1 mm 3 mps 746 mmHg 78%
09:00 +12°C° 0.1 mm 4 mps 746 mmHg 78%
10:00 +12°C° 0 mm 4 mps 746 mmHg 76%
11:00 +13°C° 0 mm 5 mps 745 mmHg 74%
12:00 +13°C° 0 mm 5 mps 744 mmHg 72%
13:00 +14°C° 0 mm 6 mps 744 mmHg 71%
14:00 +16°C° 0 mm 7 mps 744 mmHg 70%
15:00 +17°C° 0 mm 8 mps 744 mmHg 69%
16:00 +17°C° 0 mm 8 mps 743 mmHg 71%
17:00 +17°C° 0 mm 8 mps 742 mmHg 73%
18:00 +18°C° 0 mm 7 mps 742 mmHg 75%
19:00 +17°C° 0 mm 8 mps 742 mmHg 77%
20:00 +17°C° 0 mm 8 mps 742 mmHg 79%
21:00 +16°C° 0 mm 8 mps 742 mmHg 81%
22:00 +16°C° 0 mm 7 mps 742 mmHg 83%
23:00 +15°C° 0 mm 7 mps 742 mmHg 85%

Mañana, 5 Agosto, Miércoles

Tiempo Temperatura Precipitaciones Viento Presión Humedad
00:00 +15°C° 0 mm 7 mps 742 mmHg 87%
01:00 +15°C° 0 mm 7 mps 742 mmHg 86%
02:00 +15°C° 0 mm 7 mps 742 mmHg 85%
03:00 +15°C° 0 mm 7 mps 742 mmHg 84%
04:00 +15°C° 0 mm 7 mps 742 mmHg 84%
05:00 +15°C° 0 mm 7 mps 741 mmHg 84%
06:00 +15°C° 0 mm 7 mps 741 mmHg 85%
07:00 +17°C° 0 mm 7 mps 742 mmHg 80%
08:00 +18°C° 0 mm 7 mps 742 mmHg 75%
09:00 +20°C° 0 mm 8 mps 742 mmHg 70%
10:00 +20°C° 0 mm 7 mps 742 mmHg 68%
11:00 +21°C° 0 mm 7 mps 742 mmHg 66%
12:00 +22°C° 0 mm 7 mps 742 mmHg 65%
13:00 +22°C° 0 mm 7 mps 742 mmHg 63%
14:00 +23°C° 0 mm 7 mps 742 mmHg 62%
15:00 +23°C° 0 mm 7 mps 742 mmHg 61%
16:00 +22°C° 0.1 mm 6 mps 742 mmHg 65%
17:00 +22°C° 0.1 mm 6 mps 742 mmHg 69%
18:00 +21°C° 0.1 mm 5 mps 742 mmHg 72%
19:00 +20°C° 0.1 mm 5 mps 743 mmHg 76%
20:00 +19°C° 0.1 mm 5 mps 743 mmHg 80%
21:00 +19°C° 0.1 mm 5 mps 744 mmHg 84%
22:00 +17°C° 0 mm 5 mps 744 mmHg 86%
23:00 +17°C° 0 mm 5 mps 744 mmHg 88%

Pasado mañana, 6 Agosto, Jueves

Tiempo Temperatura Precipitaciones Viento Presión Humedad
00:00 +16°C° 0 mm 5 mps 744 mmHg 90%
01:00 +17°C° 0 mm 4 mps 744 mmHg 91%
02:00 +17°C° 0 mm 4 mps 744 mmHg 92%
03:00 +17°C° 0 mm 3 mps 745 mmHg 93%
04:00 +17°C° 0 mm 3 mps 745 mmHg 93%
05:00 +18°C° 0 mm 3 mps 745 mmHg 92%
06:00 +18°C° 0 mm 3 mps 745 mmHg 92%
07:00 +19°C° 0 mm 4 mps 745 mmHg 87%
08:00 +20°C° 0 mm 4 mps 746 mmHg 82%
09:00 +21°C° 0 mm 5 mps 746 mmHg 77%
10:00 +22°C° 0.1 mm 5 mps 746 mmHg 75%
11:00 +23°C° 0.1 mm 5 mps 746 mmHg 72%
12:00 +23°C° 0.1 mm 5 mps 746 mmHg 70%
13:00 +25°C° 0.2 mm 5 mps 746 mmHg 69%
14:00 +25°C° 0.2 mm 5 mps 746 mmHg 67%
15:00 +26°C° 0.2 mm 5 mps 746 mmHg 66%
16:00 +25°C° 0.3 mm 4 mps 746 mmHg 69%
17:00 +25°C° 0.3 mm 4 mps 746 mmHg 71%
18:00 +24°C° 0.3 mm 3 mps 746 mmHg 74%
19:00 +22°C° 0.2 mm 3 mps 747 mmHg 78%
20:00 +21°C° 0.2 mm 2 mps 747 mmHg 82%
21:00 +20°C° 0.2 mm 2 mps 747 mmHg 86%
22:00 +19°C° 0 mm 2 mps 748 mmHg 87%
23:00 +19°C° 0 mm 2 mps 748 mmHg 88%

7 Agosto, Viernes

Tiempo Temperatura Precipitaciones Viento Presión Humedad
00:00 +18°C° 0 mm 2 mps 748 mmHg 89%
01:00 +19°C° 0 mm 1 mps 748 mmHg 89%
02:00 +18°C° 0 mm 1 mps 748 mmHg 89%
03:00 +18°C° 0 mm 1 mps 748 mmHg 89%
04:00 +18°C° 0 mm 1 mps 748 mmHg 89%
05:00 +18°C° 0 mm 1 mps 748 mmHg 88%
06:00 +19°C° 0 mm 1 mps 748 mmHg 88%
07:00 +20°C° 0 mm 1 mps 749 mmHg 83%
08:00 +20°C° 0 mm 2 mps 749 mmHg 78%
09:00 +23°C° 0 mm 2 mps 749 mmHg 73%
10:00 +24°C° 0 mm 3 mps 749 mmHg 68%
11:00 +26°C° 0 mm 3 mps 749 mmHg 62%
12:00 +27°C° 0 mm 3 mps 749 mmHg 56%
13:00 +28°C° 0 mm 3 mps 748 mmHg 55%
14:00 +28°C° 0 mm 3 mps 748 mmHg 53%
15:00 +29°C° 0 mm 3 mps 748 mmHg 51%
16:00 +28°C° 0 mm 3 mps 748 mmHg 54%
17:00 +28°C° 0 mm 2 mps 748 mmHg 56%
18:00 +28°C° 0 mm 1 mps 748 mmHg 59%
19:00 +26°C° 0 mm 1 mps 748 mmHg 64%
20:00 +24°C° 0 mm 2 mps 748 mmHg 68%
21:00 +23°C° 0 mm 2 mps 748 mmHg 72%
22:00 +21°C° 0 mm 2 mps 748 mmHg 75%
23:00 +21°C° 0 mm 2 mps 748 mmHg 78%

8 Agosto, Sábado

Tiempo Temperatura Precipitaciones Viento Presión Humedad
00:00 +20°C° 0 mm 2 mps 748 mmHg 81%
01:00 +19°C° 0 mm 3 mps 748 mmHg 82%
02:00 +19°C° 0 mm 3 mps 748 mmHg 83%
03:00 +18°C° 0 mm 3 mps 748 mmHg 84%
04:00 +18°C° 0 mm 3 mps 748 mmHg 85%
05:00 +17°C° 0 mm 3 mps 749 mmHg 85%
06:00 +17°C° 0 mm 3 mps 749 mmHg 85%
07:00 +18°C° 0 mm 3 mps 749 mmHg 80%
08:00 +19°C° 0 mm 4 mps 750 mmHg 74%
09:00 +21°C° 0 mm 4 mps 750 mmHg 69%
10:00 +21°C° 0 mm 4 mps 750 mmHg 64%
11:00 +22°C° 0 mm 4 mps 750 mmHg 59%
12:00 +23°C° 0 mm 4 mps 751 mmHg 53%
13:00 +23°C° 0 mm 4 mps 751 mmHg 52%
14:00 +25°C° 0 mm 4 mps 751 mmHg 50%
15:00 +25°C° 0 mm 4 mps 751 mmHg 48%
16:00 +23°C° 0 mm 4 mps 751 mmHg 53%
17:00 +22°C° 0 mm 4 mps 752 mmHg 58%
18:00 +21°C° 0 mm 4 mps 752 mmHg 62%
19:00 +20°C° 0 mm 3 mps 752 mmHg 67%
20:00 +18°C° 0 mm 3 mps 753 mmHg 71%
21:00 +17°C° 0 mm 3 mps 753 mmHg 76%
22:00 +16°C° 0 mm 3 mps 753 mmHg 80%
23:00 +14°C° 0 mm 4 mps 753 mmHg 84%

9 Agosto, Domingo

Tiempo Temperatura Precipitaciones Viento Presión Humedad
00:00 +13°C° 0 mm 4 mps 753 mmHg 88%
01:00 +13°C° 0 mm 4 mps 753 mmHg 88%
02:00 +12°C° 0 mm 4 mps 753 mmHg 88%
03:00 +12°C° 0 mm 4 mps 753 mmHg 88%
04:00 +12°C° 0 mm 4 mps 753 mmHg 86%
05:00 +12°C° 0 mm 4 mps 753 mmHg 84%
06:00 +12°C° 0 mm 5 mps 754 mmHg 82%
07:00 +13°C° 0 mm 5 mps 754 mmHg 78%
08:00 +14°C° 0 mm 5 mps 753 mmHg 73%
09:00 +15°C° 0 mm 5 mps 753 mmHg 68%
10:00 +16°C° 0 mm 5 mps 753 mmHg 64%
11:00 +17°C° 0 mm 5 mps 753 mmHg 59%
12:00 +19°C° 0 mm 5 mps 753 mmHg 55%
13:00 +20°C° 0 mm 5 mps 753 mmHg 54%
14:00 +20°C° 0 mm 5 mps 752 mmHg 54%
15:00 +20°C° 0 mm 6 mps 752 mmHg 53%
16:00 +19°C° 0 mm 5 mps 752 mmHg 56%
17:00 +17°C° 0 mm 5 mps 752 mmHg 59%
18:00 +16°C° 0 mm 5 mps 752 mmHg 62%
19:00 +15°C° 0 mm 4 mps 752 mmHg 68%
20:00 +13°C° 0 mm 4 mps 752 mmHg 75%
21:00 +12°C° 0 mm 3 mps 752 mmHg 82%
22:00 +11°C° 0 mm 4 mps 751 mmHg 85%
23:00 +11°C° 0 mm 4 mps 751 mmHg 88%
Mostrar más